Year,Month,Day,Hour,Minute,Value (Times are PST for temperature in C)
2009,08,07,00,00,12.90
2009,08,07,00,01,12.90
2009,08,07,00,02,12.80
2009,08,07,00,03,12.80
2009,08,07,00,04,12.80
2009,08,07,00,05,12.80
2009,08,07,00,06,12.80
2009,08,07,00,07,12.80
2009,08,07,00,08,12.80
2009,08,07,00,09,12.80
2009,08,07,00,10,12.80
2009,08,07,00,11,12.70
2009,08,07,00,12,12.70
2009,08,07,00,13,12.70
2009,08,07,00,14,12.70
2009,08,07,00,15,12.70
2009,08,07,00,16,12.70
2009,08,07,00,17,12.70
2009,08,07,00,18,12.60
2009,08,07,00,19,12.60
2009,08,07,00,20,12.60
2009,08,07,00,21,12.60
2009,08,07,00,22,12.60
2009,08,07,00,23,12.60
2009,08,07,00,24,12.60
2009,08,07,00,25,12.60
2009,08,07,00,26,12.60
2009,08,07,00,27,12.50
2009,08,07,00,28,12.50
2009,08,07,00,29,12.50
2009,08,07,00,30,12.50
2009,08,07,00,31,12.50
2009,08,07,00,32,12.50
2009,08,07,00,33,12.50
2009,08,07,00,34,12.50
2009,08,07,00,35,12.50
2009,08,07,00,36,12.40
2009,08,07,00,37,12.40
2009,08,07,00,38,12.40
2009,08,07,00,39,12.40
2009,08,07,00,40,12.40
2009,08,07,00,41,12.40
2009,08,07,00,42,12.40
2009,08,07,00,43,12.30
2009,08,07,00,44,12.30
2009,08,07,00,45,12.30
2009,08,07,00,46,12.30
2009,08,07,00,47,12.30
2009,08,07,00,48,12.30
2009,08,07,00,49,12.30
2009,08,07,00,50,12.30
2009,08,07,00,51,12.20
2009,08,07,00,52,12.20
2009,08,07,00,53,12.20
2009,08,07,00,54,12.20
2009,08,07,00,55,12.20
2009,08,07,00,56,12.20
2009,08,07,00,57,12.20
2009,08,07,00,58,12.10
2009,08,07,00,59,12.10
2009,08,07,01,00,12.10
2009,08,07,01,01,12.10
2009,08,07,01,02,12.10
2009,08,07,01,03,12.10
2009,08,07,01,04,12.10
2009,08,07,01,05,12.10
2009,08,07,01,06,12.10
2009,08,07,01,07,12.00
2009,08,07,01,08,12.00
2009,08,07,01,09,12.00
2009,08,07,01,10,12.00
2009,08,07,01,11,12.00
2009,08,07,01,12,12.00
2009,08,07,01,13,12.00
2009,08,07,01,14,11.90
2009,08,07,01,15,11.90
2009,08,07,01,16,11.90
2009,08,07,01,17,11.90
2009,08,07,01,18,11.90
2009,08,07,01,19,11.90
2009,08,07,01,20,11.90
2009,08,07,01,21,11.90
2009,08,07,01,22,11.90
2009,08,07,01,23,11.90
2009,08,07,01,24,11.90
2009,08,07,01,25,11.90
2009,08,07,01,26,11.90
2009,08,07,01,27,11.90
2009,08,07,01,28,11.90
2009,08,07,01,29,11.80
2009,08,07,01,30,11.80
2009,08,07,01,31,11.80
2009,08,07,01,32,11.80
2009,08,07,01,33,11.80
2009,08,07,01,34,11.80
2009,08,07,01,35,11.80
2009,08,07,01,36,11.80
2009,08,07,01,37,11.80
2009,08,07,01,38,11.80
2009,08,07,01,39,11.80
2009,08,07,01,40,11.80
2009,08,07,01,41,11.80
2009,08,07,01,42,11.70
2009,08,07,01,43,11.70
2009,08,07,01,44,11.70
2009,08,07,01,45,11.70
2009,08,07,01,46,11.70
2009,08,07,01,47,11.70
2009,08,07,01,48,11.70
2009,08,07,01,49,11.70
2009,08,07,01,50,11.70
2009,08,07,01,51,11.60
2009,08,07,01,52,11.60
2009,08,07,01,53,11.60
2009,08,07,01,54,11.60
2009,08,07,01,55,11.60
2009,08,07,01,56,11.60
2009,08,07,01,57,11.60
2009,08,07,01,58,11.60
2009,08,07,01,59,11.60
2009,08,07,02,00,11.60
2009,08,07,02,01,11.60
2009,08,07,02,02,11.50
2009,08,07,02,03,11.50
2009,08,07,02,04,11.50
2009,08,07,02,05,11.50
2009,08,07,02,06,11.50
2009,08,07,02,07,11.40
2009,08,07,02,08,11.40
2009,08,07,02,09,11.40
2009,08,07,02,10,11.40
2009,08,07,02,11,11.40
2009,08,07,02,12,11.40
2009,08,07,02,13,11.40
2009,08,07,02,14,11.40
2009,08,07,02,15,11.40
2009,08,07,02,16,11.40
2009,08,07,02,17,11.30
2009,08,07,02,18,11.30
2009,08,07,02,19,11.30
2009,08,07,02,20,11.30
2009,08,07,02,21,11.30
2009,08,07,02,22,11.30
2009,08,07,02,23,11.30
2009,08,07,02,24,11.30
2009,08,07,02,25,11.30
2009,08,07,02,26,11.30
2009,08,07,02,27,11.30
2009,08,07,02,28,11.30
2009,08,07,02,29,11.30
2009,08,07,02,30,11.20
2009,08,07,02,31,11.20
2009,08,07,02,32,11.20
2009,08,07,02,33,11.20
2009,08,07,02,34,11.20
2009,08,07,02,35,11.20
2009,08,07,02,36,11.20
2009,08,07,02,37,11.20
2009,08,07,02,38,11.20
2009,08,07,02,39,11.20
2009,08,07,02,40,11.20
2009,08,07,02,41,11.20
2009,08,07,02,42,11.20
2009,08,07,02,43,11.20
2009,08,07,02,44,11.20
2009,08,07,02,45,11.20
2009,08,07,02,46,11.20
2009,08,07,02,47,11.20
2009,08,07,02,48,11.20
2009,08,07,02,49,11.20
2009,08,07,02,50,11.20
2009,08,07,02,51,11.20
2009,08,07,02,52,11.20
2009,08,07,02,53,11.20
2009,08,07,02,54,11.20
2009,08,07,02,55,11.20
2009,08,07,02,56,11.10
2009,08,07,02,57,11.10
2009,08,07,02,58,11.10
2009,08,07,02,59,11.10
2009,08,07,03,00,11.10
2009,08,07,03,01,11.10
2009,08,07,03,02,11.10
2009,08,07,03,03,11.20
2009,08,07,03,04,11.20
2009,08,07,03,05,11.20
2009,08,07,03,06,11.20
2009,08,07,03,07,11.20
2009,08,07,03,08,11.20
2009,08,07,03,09,11.20
2009,08,07,03,10,11.20
2009,08,07,03,11,11.20
2009,08,07,03,12,11.10
2009,08,07,03,13,11.10
2009,08,07,03,14,11.10
2009,08,07,03,15,11.10
2009,08,07,03,16,11.10
2009,08,07,03,17,11.10
2009,08,07,03,18,11.10
2009,08,07,03,19,11.10
2009,08,07,03,20,11.10
2009,08,07,03,21,11.10
2009,08,07,03,22,11.10
2009,08,07,03,23,11.10
2009,08,07,03,24,11.10
2009,08,07,03,25,11.10
2009,08,07,03,26,11.10
2009,08,07,03,27,11.00
2009,08,07,03,28,11.00
2009,08,07,03,29,11.00
2009,08,07,03,30,11.00
2009,08,07,03,31,11.00
2009,08,07,03,32,11.00
2009,08,07,03,33,11.00
2009,08,07,03,34,11.00
2009,08,07,03,35,11.00
2009,08,07,03,36,11.00
2009,08,07,03,37,10.90
2009,08,07,03,38,10.90
2009,08,07,03,39,10.90
2009,08,07,03,40,10.90
2009,08,07,03,41,10.90
2009,08,07,03,42,10.90
2009,08,07,03,43,10.90
2009,08,07,03,44,10.90
2009,08,07,03,45,10.90
2009,08,07,03,46,10.90
2009,08,07,03,47,10.80
2009,08,07,03,48,10.80
2009,08,07,03,49,10.80
2009,08,07,03,50,10.80
2009,08,07,03,51,10.80
2009,08,07,03,52,10.80
2009,08,07,03,53,10.80
2009,08,07,03,54,10.80
2009,08,07,03,55,10.80
2009,08,07,03,56,10.80
2009,08,07,03,57,10.80
2009,08,07,03,58,10.80
2009,08,07,03,59,10.80
2009,08,07,04,00,10.80
2009,08,07,04,01,10.80
2009,08,07,04,02,10.70
2009,08,07,04,03,10.70
2009,08,07,04,04,10.70
2009,08,07,04,05,10.70
2009,08,07,04,06,10.70
2009,08,07,04,07,10.70
2009,08,07,04,08,10.70
2009,08,07,04,09,10.70
2009,08,07,04,10,10.70
2009,08,07,04,11,10.70
2009,08,07,04,12,10.70
2009,08,07,04,13,10.70
2009,08,07,04,14,10.70
2009,08,07,04,15,10.70
2009,08,07,04,16,10.70
2009,08,07,04,17,10.70
2009,08,07,04,18,10.70
2009,08,07,04,19,10.70
2009,08,07,04,20,10.70
2009,08,07,04,21,10.70
2009,08,07,04,22,10.60
2009,08,07,04,23,10.60
2009,08,07,04,24,10.60
2009,08,07,04,25,10.60
2009,08,07,04,26,10.60
2009,08,07,04,27,10.60
2009,08,07,04,28,10.60
2009,08,07,04,29,10.60
2009,08,07,04,30,10.60
2009,08,07,04,31,10.60
2009,08,07,04,32,10.50
2009,08,07,04,33,10.50
2009,08,07,04,34,10.50
2009,08,07,04,35,10.50
2009,08,07,04,36,10.40
2009,08,07,04,37,10.40
2009,08,07,04,38,10.40
2009,08,07,04,39,10.40
2009,08,07,04,40,10.40
2009,08,07,04,41,10.40
2009,08,07,04,42,10.40
2009,08,07,04,43,10.40
2009,08,07,04,44,10.40
2009,08,07,04,45,10.40
2009,08,07,04,46,10.40
2009,08,07,04,47,10.40
2009,08,07,04,48,10.40
2009,08,07,04,49,10.30
2009,08,07,04,50,10.30
2009,08,07,04,51,10.30
2009,08,07,04,52,10.30
2009,08,07,04,53,10.30
2009,08,07,04,54,10.30
2009,08,07,04,55,10.30
2009,08,07,04,56,10.30
2009,08,07,04,57,10.30
2009,08,07,04,58,10.30
2009,08,07,04,59,10.40
2009,08,07,05,00,10.40
2009,08,07,05,01,10.40
2009,08,07,05,02,10.40
2009,08,07,05,03,10.40
2009,08,07,05,04,10.40
2009,08,07,05,05,10.40
2009,08,07,05,06,10.40
2009,08,07,05,07,10.40
2009,08,07,05,08,10.40
2009,08,07,05,09,10.40
2009,08,07,05,10,10.40
2009,08,07,05,11,10.30
2009,08,07,05,12,10.30
2009,08,07,05,13,10.30
2009,08,07,05,14,10.30
2009,08,07,05,15,10.30
2009,08,07,05,16,10.30
2009,08,07,05,17,10.30
2009,08,07,05,18,10.30
2009,08,07,05,19,10.30
2009,08,07,05,20,10.20
2009,08,07,05,21,10.20
2009,08,07,05,22,10.20
2009,08,07,05,23,10.20
2009,08,07,05,24,10.20
2009,08,07,05,25,10.20
2009,08,07,05,26,10.20
2009,08,07,05,27,10.20
2009,08,07,05,28,10.20
2009,08,07,05,29,10.20
2009,08,07,05,30,10.20
2009,08,07,05,31,10.20
2009,08,07,05,32,10.20
2009,08,07,05,33,10.20
2009,08,07,05,34,10.20
2009,08,07,05,35,10.20
2009,08,07,05,36,10.20
2009,08,07,05,37,10.20
2009,08,07,05,38,10.20
2009,08,07,05,39,10.20
2009,08,07,05,40,10.20
2009,08,07,05,41,10.20
2009,08,07,05,42,10.20
2009,08,07,05,43,10.20
2009,08,07,05,44,10.20
2009,08,07,05,45,10.20
2009,08,07,05,46,10.20
2009,08,07,05,47,10.20
2009,08,07,05,48,10.20
2009,08,07,05,49,10.20
2009,08,07,05,50,10.20
2009,08,07,05,51,10.20
2009,08,07,05,52,10.20
2009,08,07,05,53,10.20
2009,08,07,05,54,10.20
2009,08,07,05,55,10.20
2009,08,07,05,56,10.20
2009,08,07,05,57,10.20
2009,08,07,05,58,10.20
2009,08,07,05,59,10.20
2009,08,07,06,00,10.20
2009,08,07,06,01,10.20
2009,08,07,06,02,10.10
2009,08,07,06,03,10.20
2009,08,07,06,04,10.20
2009,08,07,06,05,10.20
2009,08,07,06,06,10.20
2009,08,07,06,07,10.20
2009,08,07,06,08,10.20
2009,08,07,06,09,10.20
2009,08,07,06,10,10.20
2009,08,07,06,11,10.20
2009,08,07,06,12,10.20
2009,08,07,06,13,10.20
2009,08,07,06,14,10.20
2009,08,07,06,15,10.30
2009,08,07,06,16,10.30
2009,08,07,06,17,10.30
2009,08,07,06,18,10.30
2009,08,07,06,19,10.30
2009,08,07,06,20,10.30
2009,08,07,06,21,10.30
2009,08,07,06,22,10.30
2009,08,07,06,23,10.30
2009,08,07,06,24,10.30
2009,08,07,06,25,10.30
2009,08,07,06,26,10.30
2009,08,07,06,27,10.30
2009,08,07,06,28,10.30
2009,08,07,06,29,10.30
2009,08,07,06,30,10.30
2009,08,07,06,31,10.30
2009,08,07,06,32,10.30
2009,08,07,06,33,10.30
2009,08,07,06,34,10.30
2009,08,07,06,35,10.30
2009,08,07,06,36,10.30
2009,08,07,06,37,10.30
2009,08,07,06,38,10.30
2009,08,07,06,39,10.30
2009,08,07,06,40,10.30
2009,08,07,06,41,10.30
2009,08,07,06,42,10.30
2009,08,07,06,43,10.30
2009,08,07,06,44,10.40
2009,08,07,06,45,10.40
2009,08,07,06,46,10.30
2009,08,07,06,47,10.30
2009,08,07,06,48,10.30
2009,08,07,06,49,10.30
2009,08,07,06,50,10.30
2009,08,07,06,51,10.40
2009,08,07,06,52,10.30
2009,08,07,06,53,10.40
2009,08,07,06,54,10.40
2009,08,07,06,55,10.40
2009,08,07,06,56,10.40
2009,08,07,06,57,10.40
2009,08,07,06,58,10.40
2009,08,07,06,59,10.40
2009,08,07,07,00,10.40
2009,08,07,07,01,10.40
2009,08,07,07,02,10.40
2009,08,07,07,03,10.40
2009,08,07,07,04,10.40
2009,08,07,07,05,10.40
2009,08,07,07,06,10.40
2009,08,07,07,07,10.40
2009,08,07,07,08,10.40
2009,08,07,07,09,10.40
2009,08,07,07,10,10.40
2009,08,07,07,11,10.50
2009,08,07,07,12,10.50
2009,08,07,07,13,10.50
2009,08,07,07,14,10.50
2009,08,07,07,15,10.50
2009,08,07,07,16,10.60
2009,08,07,07,17,10.60
2009,08,07,07,18,10.60
2009,08,07,07,19,10.60
2009,08,07,07,20,10.70
2009,08,07,07,21,10.70
2009,08,07,07,22,10.70
2009,08,07,07,23,10.70
2009,08,07,07,24,10.80
2009,08,07,07,25,10.80
2009,08,07,07,26,10.80
2009,08,07,07,27,10.80
2009,08,07,07,28,10.80
2009,08,07,07,29,10.80
2009,08,07,07,30,10.90
2009,08,07,07,31,10.90
2009,08,07,07,32,10.90
2009,08,07,07,33,10.90
2009,08,07,07,34,10.90
2009,08,07,07,35,11.00
2009,08,07,07,36,11.00
2009,08,07,07,37,11.00
2009,08,07,07,38,11.10
2009,08,07,07,39,11.10
2009,08,07,07,40,11.10
2009,08,07,07,41,11.10
2009,08,07,07,42,11.20
2009,08,07,07,43,11.20
2009,08,07,07,44,11.20
2009,08,07,07,45,11.20
2009,08,07,07,46,11.30
2009,08,07,07,47,11.30
2009,08,07,07,48,11.30
2009,08,07,07,49,11.30
2009,08,07,07,50,11.30
2009,08,07,07,51,11.40
2009,08,07,07,52,11.40
2009,08,07,07,53,11.40
2009,08,07,07,54,11.50
2009,08,07,07,55,11.50
2009,08,07,07,56,11.50
2009,08,07,07,57,11.60
2009,08,07,07,58,11.60
2009,08,07,07,59,11.60
2009,08,07,08,00,11.60
2009,08,07,08,01,11.70
2009,08,07,08,02,11.70
2009,08,07,08,03,11.70
2009,08,07,08,04,11.80
2009,08,07,08,05,11.80
2009,08,07,08,06,11.80
2009,08,07,08,07,11.90
2009,08,07,08,08,11.90
2009,08,07,08,09,12.00
2009,08,07,08,10,12.00
2009,08,07,08,11,12.10
2009,08,07,08,12,12.10
2009,08,07,08,13,12.20
2009,08,07,08,14,12.20
2009,08,07,08,15,12.20
2009,08,07,08,16,12.30
2009,08,07,08,17,12.30
2009,08,07,08,18,12.40
2009,08,07,08,19,12.50
2009,08,07,08,20,12.50
2009,08,07,08,21,12.60
2009,08,07,08,22,12.60
2009,08,07,08,23,12.70
2009,08,07,08,24,12.70
2009,08,07,08,25,12.80
2009,08,07,08,26,12.90
2009,08,07,08,27,12.90
2009,08,07,08,28,13.00
2009,08,07,08,29,13.10
2009,08,07,08,30,13.10
2009,08,07,08,31,13.20
2009,08,07,08,32,13.20
2009,08,07,08,33,13.30
2009,08,07,08,34,13.30
2009,08,07,08,35,13.40
2009,08,07,08,36,13.40
2009,08,07,08,37,13.50
2009,08,07,08,38,13.50
2009,08,07,08,39,13.60
2009,08,07,08,40,13.60
2009,08,07,08,41,13.70
2009,08,07,08,42,13.70
2009,08,07,08,43,13.80
2009,08,07,08,44,13.80
2009,08,07,08,45,13.90
2009,08,07,08,46,14.00
2009,08,07,08,47,14.00
2009,08,07,08,48,14.00
2009,08,07,08,49,14.10
2009,08,07,08,50,14.10
2009,08,07,08,51,14.20
2009,08,07,08,52,14.20
2009,08,07,08,53,14.30
2009,08,07,08,54,14.30
2009,08,07,08,55,14.30
2009,08,07,08,56,14.30
2009,08,07,08,57,14.40
2009,08,07,08,58,14.40
2009,08,07,08,59,14.40
2009,08,07,09,00,14.40
2009,08,07,09,01,14.50
2009,08,07,09,02,14.50
2009,08,07,09,03,14.50
2009,08,07,09,04,14.60
2009,08,07,09,05,14.60
2009,08,07,09,06,14.60
2009,08,07,09,07,14.60
2009,08,07,09,08,14.70
2009,08,07,09,09,14.70
2009,08,07,09,10,14.80
2009,08,07,09,11,14.80
2009,08,07,09,12,14.80
2009,08,07,09,13,14.90
2009,08,07,09,14,15.00
2009,08,07,09,15,15.00
2009,08,07,09,16,15.00
2009,08,07,09,17,15.00
2009,08,07,09,18,15.00
2009,08,07,09,19,15.00
2009,08,07,09,20,15.00
2009,08,07,09,21,15.00
2009,08,07,09,22,15.00
2009,08,07,09,23,15.00
2009,08,07,09,24,15.00
2009,08,07,09,25,15.10
2009,08,07,09,26,15.20
2009,08,07,09,27,15.20
2009,08,07,09,28,15.20
2009,08,07,09,29,15.30
2009,08,07,09,30,15.30
2009,08,07,09,31,15.40
2009,08,07,09,32,15.50
2009,08,07,09,33,15.50
2009,08,07,09,34,15.50
2009,08,07,09,35,15.60
2009,08,07,09,36,15.60
2009,08,07,09,37,15.60
2009,08,07,09,38,15.60
2009,08,07,09,39,15.70
2009,08,07,09,40,15.70
2009,08,07,09,41,15.70
2009,08,07,09,42,15.70
2009,08,07,09,43,15.70
2009,08,07,09,44,15.80
2009,08,07,09,45,15.80
2009,08,07,09,46,15.80
2009,08,07,09,47,15.90
2009,08,07,09,48,15.90
2009,08,07,09,49,15.90
2009,08,07,09,50,16.00
2009,08,07,09,51,16.00
2009,08,07,09,52,16.00
2009,08,07,09,53,16.10
2009,08,07,09,54,16.10
2009,08,07,09,55,16.10
2009,08,07,09,56,16.10
2009,08,07,09,57,16.10
2009,08,07,09,58,16.10
2009,08,07,09,59,16.10
2009,08,07,10,00,16.10
2009,08,07,10,01,16.10
2009,08,07,10,02,16.20
2009,08,07,10,03,16.20
2009,08,07,10,04,16.30
2009,08,07,10,05,16.30
2009,08,07,10,06,16.30
2009,08,07,10,07,16.40
2009,08,07,10,08,16.40
2009,08,07,10,09,16.40
2009,08,07,10,10,16.40
2009,08,07,10,11,16.50
2009,08,07,10,12,16.50
2009,08,07,10,13,16.60
2009,08,07,10,14,16.60
2009,08,07,10,15,16.60
2009,08,07,10,16,16.60
2009,08,07,10,17,16.70
2009,08,07,10,18,16.70
2009,08,07,10,19,16.70
2009,08,07,10,20,16.70
2009,08,07,10,21,16.80
2009,08,07,10,22,16.80
2009,08,07,10,23,16.80
2009,08,07,10,24,16.90
2009,08,07,10,25,16.90
2009,08,07,10,26,16.90
2009,08,07,10,27,16.90
2009,08,07,10,28,16.90
2009,08,07,10,29,17.00
2009,08,07,10,30,17.00
2009,08,07,10,31,17.10
2009,08,07,10,32,17.10
2009,08,07,10,33,17.10
2009,08,07,10,34,17.00
2009,08,07,10,35,17.10
2009,08,07,10,36,17.10
2009,08,07,10,37,17.10
2009,08,07,10,38,17.10
2009,08,07,10,39,17.10
2009,08,07,10,40,17.10
2009,08,07,10,41,17.10
2009,08,07,10,42,17.10
2009,08,07,10,43,17.10
2009,08,07,10,44,17.10
2009,08,07,10,45,17.10
2009,08,07,10,46,17.10
2009,08,07,10,47,17.10
2009,08,07,10,48,17.10
2009,08,07,10,49,17.20
2009,08,07,10,50,17.20
2009,08,07,10,51,17.20
2009,08,07,10,52,17.30
2009,08,07,10,53,17.30
2009,08,07,10,54,17.30
2009,08,07,10,55,17.40
2009,08,07,10,56,17.40
2009,08,07,10,57,17.40
2009,08,07,10,58,17.40
2009,08,07,10,59,17.40
2009,08,07,11,00,17.50
2009,08,07,11,01,17.50
2009,08,07,11,02,17.50
2009,08,07,11,03,17.60
2009,08,07,11,04,17.60
2009,08,07,11,05,17.70
2009,08,07,11,06,17.70
2009,08,07,11,07,17.80
2009,08,07,11,08,17.80
2009,08,07,11,09,17.90
2009,08,07,11,10,17.90
2009,08,07,11,11,17.90
2009,08,07,11,12,17.90
2009,08,07,11,13,17.90
2009,08,07,11,14,17.90
2009,08,07,11,15,17.90
2009,08,07,11,16,17.90
2009,08,07,11,17,17.80
2009,08,07,11,18,17.80
2009,08,07,11,19,17.80
2009,08,07,11,20,17.80
2009,08,07,11,21,17.80
2009,08,07,11,22,17.80
2009,08,07,11,23,17.90
2009,08,07,11,24,17.90
2009,08,07,11,25,18.00
2009,08,07,11,26,18.00
2009,08,07,11,27,18.10
2009,08,07,11,28,18.20
2009,08,07,11,29,18.20
2009,08,07,11,30,18.30
2009,08,07,11,31,18.30
2009,08,07,11,32,18.20
2009,08,07,11,33,18.20
2009,08,07,11,34,18.20
2009,08,07,11,35,18.10
2009,08,07,11,36,18.10
2009,08,07,11,37,18.00
2009,08,07,11,38,18.00
2009,08,07,11,39,18.00
2009,08,07,11,40,18.00
2009,08,07,11,41,18.00
2009,08,07,11,42,18.10
2009,08,07,11,43,18.10
2009,08,07,11,44,18.20
2009,08,07,11,45,18.30
2009,08,07,11,46,18.40
2009,08,07,11,47,18.50
2009,08,07,11,48,18.50
2009,08,07,11,49,18.60
2009,08,07,11,50,18.60
2009,08,07,11,51,18.60
2009,08,07,11,52,18.60
2009,08,07,11,53,18.60
2009,08,07,11,54,18.50
2009,08,07,11,55,18.50
2009,08,07,11,56,18.50
2009,08,07,11,57,18.60
2009,08,07,11,58,18.60
2009,08,07,11,59,18.70
2009,08,07,12,00,18.70
2009,08,07,12,01,18.80
2009,08,07,12,02,18.80
2009,08,07,12,03,18.90
2009,08,07,12,04,18.90
2009,08,07,12,05,19.00
2009,08,07,12,06,19.00
2009,08,07,12,07,19.10
2009,08,07,12,08,19.10
2009,08,07,12,09,19.20
2009,08,07,12,10,19.20
2009,08,07,12,11,19.20
2009,08,07,12,12,19.20
2009,08,07,12,13,19.30
2009,08,07,12,14,19.30
2009,08,07,12,15,19.30
2009,08,07,12,16,19.40
2009,08,07,12,17,19.40
2009,08,07,12,18,19.50
2009,08,07,12,19,19.60
2009,08,07,12,20,19.60
2009,08,07,12,21,19.70
2009,08,07,12,22,19.80
2009,08,07,12,23,19.90
2009,08,07,12,24,20.00
2009,08,07,12,25,20.10
2009,08,07,12,26,20.20
2009,08,07,12,27,20.30
2009,08,07,12,28,20.30
2009,08,07,12,29,20.40
2009,08,07,12,30,20.40
2009,08,07,12,31,20.50
2009,08,07,12,32,20.60
2009,08,07,12,33,20.60
2009,08,07,12,34,20.60
2009,08,07,12,35,20.60
2009,08,07,12,36,20.60
2009,08,07,12,37,20.60
2009,08,07,12,38,20.60
2009,08,07,12,39,20.60
2009,08,07,12,40,20.60
2009,08,07,12,41,20.60
2009,08,07,12,42,20.70
2009,08,07,12,43,20.80
2009,08,07,12,44,20.80
2009,08,07,12,45,20.80
2009,08,07,12,46,20.80
2009,08,07,12,47,20.80
2009,08,07,12,48,20.80
2009,08,07,12,49,20.80
2009,08,07,12,50,20.70
2009,08,07,12,51,20.70
2009,08,07,12,52,20.70
2009,08,07,12,53,20.70
2009,08,07,12,54,20.70
2009,08,07,12,55,20.70
2009,08,07,12,56,20.70
2009,08,07,12,57,20.60
2009,08,07,12,58,20.60
2009,08,07,12,59,20.50
2009,08,07,13,00,20.50
2009,08,07,13,01,20.50
2009,08,07,13,02,20.60
2009,08,07,13,03,20.50
2009,08,07,13,04,20.40
2009,08,07,13,05,20.30
2009,08,07,13,06,20.30
2009,08,07,13,07,20.30
2009,08,07,13,08,20.30
2009,08,07,13,09,20.40
2009,08,07,13,10,20.50
2009,08,07,13,11,20.50
2009,08,07,13,12,20.50
2009,08,07,13,13,20.60
2009,08,07,13,14,20.70
2009,08,07,13,15,20.80
2009,08,07,13,16,20.90
2009,08,07,13,17,20.90
2009,08,07,13,18,20.80
2009,08,07,13,19,20.80
2009,08,07,13,20,20.80
2009,08,07,13,21,20.80
2009,08,07,13,22,20.80
2009,08,07,13,23,20.80
2009,08,07,13,24,20.70
2009,08,07,13,25,20.60
2009,08,07,13,26,20.50
2009,08,07,13,27,20.40
2009,08,07,13,28,20.40
2009,08,07,13,29,20.30
2009,08,07,13,30,20.30
2009,08,07,13,31,20.30
2009,08,07,13,32,20.40
2009,08,07,13,33,20.40
2009,08,07,13,34,20.30
2009,08,07,13,35,20.30
2009,08,07,13,36,20.30
2009,08,07,13,37,20.30
2009,08,07,13,38,20.20
2009,08,07,13,39,20.30
2009,08,07,13,40,20.30
2009,08,07,13,41,20.30
2009,08,07,13,42,20.30
2009,08,07,13,43,20.30
2009,08,07,13,44,20.30
2009,08,07,13,45,20.30
2009,08,07,13,46,20.40
2009,08,07,13,47,20.40
2009,08,07,13,48,20.50
2009,08,07,13,49,20.50
2009,08,07,13,50,20.50
2009,08,07,13,51,20.40
2009,08,07,13,52,20.30
2009,08,07,13,53,20.10
2009,08,07,13,54,20.00
2009,08,07,13,55,20.00
2009,08,07,13,56,19.90
2009,08,07,13,57,19.80
2009,08,07,13,58,19.70
2009,08,07,13,59,19.70
2009,08,07,14,00,19.70
2009,08,07,14,01,19.60
2009,08,07,14,02,19.60
2009,08,07,14,03,19.60
2009,08,07,14,04,19.70
2009,08,07,14,05,19.70
2009,08,07,14,06,19.70
2009,08,07,14,07,19.80
2009,08,07,14,08,19.90
2009,08,07,14,09,19.90
2009,08,07,14,10,20.00
2009,08,07,14,11,20.00
2009,08,07,14,12,20.00
2009,08,07,14,13,20.00
2009,08,07,14,14,19.90
2009,08,07,14,15,19.80
2009,08,07,14,16,19.80
2009,08,07,14,17,19.70
2009,08,07,14,18,19.60
2009,08,07,14,19,19.40
2009,08,07,14,20,19.40
2009,08,07,14,21,19.40
2009,08,07,14,22,19.30
2009,08,07,14,23,19.30
2009,08,07,14,24,19.20
2009,08,07,14,25,19.20
2009,08,07,14,26,19.20
2009,08,07,14,27,19.30
2009,08,07,14,28,19.30
2009,08,07,14,29,19.30
2009,08,07,14,30,19.20
2009,08,07,14,31,19.20
2009,08,07,14,32,19.20
2009,08,07,14,33,19.20
2009,08,07,14,34,19.20
2009,08,07,14,35,19.20
2009,08,07,14,36,19.20
2009,08,07,14,37,19.20
2009,08,07,14,38,19.20
2009,08,07,14,39,19.20
2009,08,07,14,40,19.10
2009,08,07,14,41,19.00
2009,08,07,14,42,19.00
2009,08,07,14,43,19.10
2009,08,07,14,44,19.20
2009,08,07,14,45,19.20
2009,08,07,14,46,19.30
2009,08,07,14,47,19.40
2009,08,07,14,48,19.40
2009,08,07,14,49,19.50
2009,08,07,14,50,19.60
2009,08,07,14,51,19.60
2009,08,07,14,52,19.70
2009,08,07,14,53,19.80
2009,08,07,14,54,19.80
2009,08,07,14,55,19.90
2009,08,07,14,56,19.90
2009,08,07,14,57,19.90
2009,08,07,14,58,20.00
2009,08,07,14,59,20.00
2009,08,07,15,00,20.10
2009,08,07,15,01,20.10
2009,08,07,15,02,20.10
2009,08,07,15,03,20.10
2009,08,07,15,04,20.00
2009,08,07,15,05,20.00
2009,08,07,15,06,19.80
2009,08,07,15,07,19.70
2009,08,07,15,08,19.70
2009,08,07,15,09,19.60
2009,08,07,15,10,19.60
2009,08,07,15,11,19.60
2009,08,07,15,12,19.60
2009,08,07,15,13,19.60
2009,08,07,15,14,19.60
2009,08,07,15,15,19.50
2009,08,07,15,16,19.40
2009,08,07,15,17,19.30
2009,08,07,15,18,19.20
2009,08,07,15,19,19.20
2009,08,07,15,20,19.20
2009,08,07,15,21,19.20
2009,08,07,15,22,19.20
2009,08,07,15,23,19.20
2009,08,07,15,24,19.30
2009,08,07,15,25,19.30
2009,08,07,15,26,19.30
2009,08,07,15,27,19.30
2009,08,07,15,28,19.30
2009,08,07,15,29,19.30
2009,08,07,15,30,19.30
2009,08,07,15,31,19.30
2009,08,07,15,32,19.30
2009,08,07,15,33,19.30
2009,08,07,15,34,19.30
2009,08,07,15,35,19.30
2009,08,07,15,36,19.20
2009,08,07,15,37,19.20
2009,08,07,15,38,19.10
2009,08,07,15,39,19.10
2009,08,07,15,40,19.00
2009,08,07,15,41,19.00
2009,08,07,15,42,19.00
2009,08,07,15,43,18.90
2009,08,07,15,44,18.90
2009,08,07,15,45,18.80
2009,08,07,15,46,18.70
2009,08,07,15,47,18.70
2009,08,07,15,48,18.70
2009,08,07,15,49,18.60
2009,08,07,15,50,18.60
2009,08,07,15,51,18.70
2009,08,07,15,52,18.70
2009,08,07,15,53,18.70
2009,08,07,15,54,18.60
2009,08,07,15,55,18.60
2009,08,07,15,56,18.60
2009,08,07,15,57,18.60
2009,08,07,15,58,18.50
2009,08,07,15,59,18.50
2009,08,07,16,00,18.50
2009,08,07,16,01,18.40
2009,08,07,16,02,18.40
2009,08,07,16,03,18.30
2009,08,07,16,04,18.30
2009,08,07,16,05,18.20
2009,08,07,16,06,18.20
2009,08,07,16,07,18.10
2009,08,07,16,08,18.10
2009,08,07,16,09,18.10
2009,08,07,16,10,18.10
2009,08,07,16,11,18.10
2009,08,07,16,12,18.10
2009,08,07,16,13,18.10
2009,08,07,16,14,18.00
2009,08,07,16,15,18.00
2009,08,07,16,16,17.90
2009,08,07,16,17,17.90
2009,08,07,16,18,17.90
2009,08,07,16,19,17.90
2009,08,07,16,20,17.90
2009,08,07,16,21,17.80
2009,08,07,16,22,17.80
2009,08,07,16,23,17.80
2009,08,07,16,24,17.80
2009,08,07,16,25,17.90
2009,08,07,16,26,17.90
2009,08,07,16,27,17.90
2009,08,07,16,28,18.00
2009,08,07,16,29,18.00
2009,08,07,16,30,18.00
2009,08,07,16,31,18.10
2009,08,07,16,32,18.00
2009,08,07,16,33,18.00
2009,08,07,16,34,18.00
2009,08,07,16,35,18.00
2009,08,07,16,36,18.00
2009,08,07,16,37,18.00
2009,08,07,16,38,18.00
2009,08,07,16,39,18.00
2009,08,07,16,40,18.00
2009,08,07,16,41,18.00
2009,08,07,16,42,18.10
2009,08,07,16,43,18.10
2009,08,07,16,44,18.10
2009,08,07,16,45,18.10
2009,08,07,16,46,18.20
2009,08,07,16,47,18.20
2009,08,07,16,48,18.20
2009,08,07,16,49,18.20
2009,08,07,16,50,18.30
2009,08,07,16,51,18.30
2009,08,07,16,52,18.30
2009,08,07,16,53,18.30
2009,08,07,16,54,18.40
2009,08,07,16,55,18.40
2009,08,07,16,56,18.40
2009,08,07,16,57,18.40
2009,08,07,16,58,18.50
2009,08,07,16,59,18.50
2009,08,07,17,00,18.50
2009,08,07,17,01,18.60
2009,08,07,17,02,18.60
2009,08,07,17,03,18.60
2009,08,07,17,04,18.60
2009,08,07,17,05,18.60
2009,08,07,17,06,18.60
2009,08,07,17,07,18.70
2009,08,07,17,08,18.70
2009,08,07,17,09,18.70
2009,08,07,17,10,18.70
2009,08,07,17,11,18.70
2009,08,07,17,12,18.70
2009,08,07,17,13,18.70
2009,08,07,17,14,18.70
2009,08,07,17,15,18.70
2009,08,07,17,16,18.70
2009,08,07,17,17,18.80
2009,08,07,17,18,18.80
2009,08,07,17,19,18.80